WA8SIE Weather Reports


Display with metric or nautical units.
time (UTC)temp
F
wind
direction
speed
MPH
gust
MPH
rain 1hr
in
rain 24hr
in
rain mn
in
humidity
%
barometer
mb
20240415045510 73 235 0.0 4.0 0.00 0.00 0.00 31 1006.8
20240415045011 72 234 4.0 12.0 0.00 0.00 0.00 31 1006.8
20240415044511 73 236 1.0 12.0 0.00 0.00 0.00 31 1006.8
20240415044010 72 195 6.0 12.0 0.00 0.00 0.00 32 1006.7
20240415043511 71 220 2.0 7.0 0.00 0.00 0.00 33 1006.7
20240415043010 71 207 3.0 5.0 0.00 0.00 0.00 34 1006.7
20240415042511 71 243 3.0 3.0 0.00 0.00 0.00 35 1006.7
20240415042011 72 243 0.0 1.0 0.00 0.00 0.00 34 1006.7
20240415041510 72 244 0.0 1.0 0.00 0.00 0.00 33 1006.7
20240415040010 74 243 0.0 4.0 0.00 0.00 0.00 31 1006.6
20240415035511 74 230 1.0 4.0 0.00 0.00 0.00 30 1006.6
20240415035011 74 222 0.0 4.0 0.00 0.00 0.00 30 1006.6
20240415034510 75 221 0.0 4.0 0.00 0.00 0.00 29 1006.6
20240415034011 74 247 2.0 5.0 0.00 0.00 0.00 30 1006.5
20240415033511 74 250 2.0 6.0 0.00 0.00 0.00 30 1006.5
20240415033011 75 231 0.0 6.0 0.00 0.00 0.00 31 1006.5
20240415032010 74 204 1.0 5.0 0.00 0.00 0.00 29 1006.4
20240415031511 74 200 1.0 5.0 0.00 0.00 0.00 31 1006.4
20240415031010 74 203 0.0 4.0 0.00 0.00 0.00 32 1005.4
20240415030511 74 203 0.0 5.0 0.00 0.00 0.00 31 1005.4
20240415030011 73 243 3.0 5.0 0.00 0.00 0.00 31 1005.4
20240415025510 72 221 3.0 4.0 0.00 0.00 0.00 34 1005.3
20240415025011 72 221 2.0 4.0 0.00 0.00 0.00 33 1005.3
20240415024010 73 206 0.0 4.0 0.00 0.00 0.00 32 1005.3
20240415023511 73 232 2.0 2.0 0.00 0.00 0.00 34 1005.3
20240415023011 73 231 0.0 3.0 0.00 0.00 0.00 34 1005.3
20240415022510 73 232 0.0 3.0 0.00 0.00 0.00 32 1006.2
20240415022012 73 232 0.0 3.0 0.00 0.00 0.00 32 1006.2
20240415021510 74 239 0.0 3.0 0.00 0.00 0.00 31 1006.2
20240415020510 74 238 0.0 3.0 0.00 0.00 0.00 31 1005.1
20240415020010 75 238 0.0 3.0 0.00 0.00 0.00 31 1005.1
20240415015011 76 238 1.0 0.0 0.00 0.00 0.00 30 1004.9
20240415014011 77 238 0.0 3.0 0.00 0.00 0.00 29 1005.0
20240415013510 77 238 0.0 4.0 0.00 0.00 0.00 29 1005.0
20240415013010 78 239 0.0 4.0 0.00 0.00 0.00 28 1005.0
20240415012511 78 239 2.0 4.0 0.00 0.00 0.00 30 1005.6
20240415012010 79 238 4.0 4.0 0.00 0.00 0.00 26 1005.6
20240415011510 79 238 0.0 5.0 0.00 0.00 0.00 26 1005.6
20240415011011 79 250 0.0 6.0 0.00 0.00 0.00 27 1004.7
20240415010510 80 243 5.0 7.0 0.00 0.00 0.00 26 1004.7
20240415010011 80 249 4.0 7.0 0.00 0.00 0.00 26 1004.7
20240415005011 80 226 0.0 7.0 0.00 0.00 0.00 27 1004.6
20240415004511 80 239 0.0 7.0 0.00 0.00 0.00 25 1004.6
20240415003511 81 235 2.0 8.0 0.00 0.00 0.00 24 1004.5
20240415003011 80 245 0.0 8.0 0.00 0.00 0.00 24 1004.5
20240415002510 80 236 1.0 6.0 0.00 0.00 0.00 25 1004.3
20240415002011 80 243 0.0 6.0 0.00 0.00 0.00 25 1004.3
20240415001511 81 236 2.0 6.0 0.00 0.00 0.00 24 1004.3
20240415000010 82 240 0.0 9.0 0.00 0.00 0.00 24 1004.2
20240414235510 82 240 3.0 9.0 0.00 0.00 0.00 22 1003.8
20240414235011 82 221 1.0 16.0 0.00 0.00 0.00 23 1003.8
20240414234510 83 240 3.0 16.0 0.00 0.00 0.00 22 1003.8
20240414234011 83 191 9.0 13.0 0.00 0.00 0.00 22 1004.3
20240414233510 83 227 5.0 9.0 0.00 0.00 0.00 23 1004.3
20240414233011 83 218 3.0 9.0 0.00 0.00 0.00 22 1004.3
20240414232510 83 241 4.0 11.0 0.00 0.00 0.00 22 1004.2
20240414231510 83 203 0.0 14.0 0.00 0.00 0.00 23 1004.2
20240414231011 83 202 3.0 12.0 0.00 0.00 0.00 22 1004.4
20240414230510 83 202 8.0 10.0 0.00 0.00 0.00 22 1004.4
20240414230011 83 201 5.0 13.0 0.00 0.00 0.00 22 1004.4
20240414225510 84 203 5.0 13.0 0.00 0.00 0.00 22 1004.3
20240414225011 84 227 13.0 14.0 0.00 0.00 0.00 22 1004.3
20240414224511 84 224 12.0 14.0 0.00 0.00 0.00 22 1004.3
20240414223511 84 253 6.0 18.0 0.00 0.00 0.00 22 1004.2
20240414222511 84 278 5.0 10.0 0.00 0.00 0.00 23 1004.3
20240414222010 84 233 4.0 12.0 0.00 0.00 0.00 23 1004.3
20240414221511 84 297 6.0 14.0 0.00 0.00 0.00 23 1004.3
20240414221010 84 252 5.0 14.0 0.00 0.00 0.00 23 1004.2
20240414220511 84 269 2.0 11.0 0.00 0.00 0.00 23 1004.2
20240414220010 84 212 1.0 20.0 0.00 0.00 0.00 23 1004.2
20240414215511 84 253 3.0 20.0 0.00 0.00 0.00 23 1004.4
20240414214511 85 353 3.0 13.0 0.00 0.00 0.00 24 1004.4
20240414214010 84 207 3.0 11.0 0.00 0.00 0.00 25 1004.3
20240414213511 84 274 1.0 17.0 0.00 0.00 0.00 25 1004.3
20240414213010 84 234 4.0 17.0 0.00 0.00 0.00 25 1004.3
20240414212511 84 255 3.0 16.0 0.00 0.00 0.00 26 1004.4
20240414212010 84 256 4.0 16.0 0.00 0.00 0.00 25 1004.4
20240414211511 84 232 4.0 18.0 0.00 0.00 0.00 26 1004.4
20240414211011 84 195 4.0 18.0 0.00 0.00 0.00 25 1004.5
20240414210511 84 214 11.0 18.0 0.00 0.00 0.00 25 1004.5
20240414210011 84 212 6.0 19.0 0.00 0.00 0.00 25 1004.5
20240414205011 84 205 4.0 16.0 0.00 0.00 0.00 24 1004.8
20240414204510 84 205 3.0 16.0 0.00 0.00 0.00 24 1004.8
20240414204011 84 205 7.0 19.0 0.00 0.00 0.00 24 1004.8
20240414203010 84 300 6.0 17.0 0.00 0.00 0.00 25 1004.8
20240414202510 85 271 6.0 12.0 0.00 0.00 0.00 24 1005.0
20240414202011 85 224 7.0 14.0 0.00 0.00 0.00 27 1005.0
20240414201010 84 236 10.0 13.0 0.00 0.00 0.00 25 1005.4
20240414200511 84 223 2.0 16.0 0.00 0.00 0.00 25 1005.4
20240414200010 84 271 7.0 16.0 0.00 0.00 0.00 25 1005.4
20240414195511 84 221 11.0 18.0 0.00 0.00 0.00 26 1005.5
20240414195010 83 226 6.0 18.0 0.00 0.00 0.00 26 1005.5
20240414194511 83 198 9.0 17.0 0.00 0.00 0.00 26 1005.5
20240414194010 83 264 2.0 18.0 0.00 0.00 0.00 27 1006.0
20240414193511 83 233 3.0 18.0 0.00 0.00 0.00 26 1006.0
20240414193010 83 210 9.0 21.0 0.00 0.00 0.00 26 1006.0
20240414192511 83 200 12.0 21.0 0.00 0.00 0.00 26 1006.2
20240414192011 83 255 5.0 18.0 0.00 0.00 0.00 26 1006.2
20240414191511 84 179 16.0 22.0 0.00 0.00 0.00 26 1006.2
20240414191010 84 215 2.0 22.0 0.00 0.00 0.00 27 1006.3
20240414190011 84 210 2.0 15.0 0.00 0.00 0.00 27 1006.3
20240414185510 84 209 14.0 23.0 0.00 0.00 0.00 26 1006.5
20240414185011 83 203 2.0 23.0 0.00 0.00 0.00 26 1006.5
20240414184510 83 309 7.0 20.0 0.00 0.00 0.00 26 1006.5
20240414183511 84 192 3.0 18.0 0.00 0.00 0.00 29 1006.6
20240414183011 83 281 3.0 18.0 0.00 0.00 0.00 27 1006.6
20240414182510 83 178 14.0 16.0 0.00 0.00 0.00 28 1006.6
20240414181510 83 209 2.0 13.0 0.00 0.00 0.00 28 1006.6
20240414181011 83 210 3.0 22.0 0.00 0.00 0.00 29 1007.1
20240414180511 82 209 7.0 22.0 0.00 0.00 0.00 28 1007.1
20240414180011 82 181 20.0 21.0 0.00 0.00 0.00 29 1007.1
20240414175510 81 182 11.0 21.0 0.00 0.00 0.00 28 1007.4
20240414175010 82 243 12.0 19.0 0.00 0.00 0.00 29 1007.4
20240414174510 81 214 2.0 19.0 0.00 0.00 0.00 29 1007.4
20240414174010 81 213 7.0 18.0 0.00 0.00 0.00 30 1007.6
20240414173511 82 253 7.0 12.0 0.00 0.00 0.00 29 1007.6
20240414173010 82 222 7.0 9.0 0.00 0.00 0.00 30 1007.6
20240414172511 81 239 3.0 11.0 0.00 0.00 0.00 31 1007.9
20240414172011 81 248 3.0 11.0 0.00 0.00 0.00 29 1007.9
20240414171511 81 243 5.0 11.0 0.00 0.00 0.00 30 1007.9
20240414171010 80 239 6.0 12.0 0.00 0.00 0.00 30 1008.2
20240414170511 80 203 4.0 12.0 0.00 0.00 0.00 30 1008.2
20240414170011 80 217 5.0 18.0 0.00 0.00 0.00 31 1008.2
20240414165510 79 217 3.0 18.0 0.00 0.00 0.00 32 1008.6
20240414165011 80 194 6.0 11.0 0.00 0.00 0.00 31 1008.6
20240414164011 78 217 4.0 9.0 0.00 0.00 0.00 36 1008.7
20240414163011 78 217 3.0 20.0 0.00 0.00 0.00 33 1008.7
20240414162511 78 216 3.0 20.0 0.00 0.00 0.00 32 1008.9
20240414162010 78 219 6.0 13.0 0.00 0.00 0.00 32 1008.9
20240414161511 78 242 7.0 12.0 0.00 0.00 0.00 33 1008.9
20240414160510 77 249 4.0 14.0 0.00 0.00 0.00 32 1009.2
20240414160010 77 259 3.0 14.0 0.00 0.00 0.00 34 1009.2
20240414155012 77 216 10.0 12.0 0.00 0.00 0.00 33 1009.2
20240414154510 77 214 11.0 12.0 0.00 0.00 0.00 34 1009.2
20240414154010 77 186 3.0 11.0 0.00 0.00 0.00 34 1009.5
20240414153511 76 211 5.0 23.0 0.00 0.00 0.00 34 1009.5
20240414153010 76 216 3.0 23.0 0.00 0.00 0.00 36 1009.5
20240414152511 76 212 5.0 11.0 0.00 0.00 0.00 36 1009.8
20240414152011 76 199 6.0 11.0 0.00 0.00 0.00 35 1009.8
20240414151510 76 212 3.0 16.0 0.00 0.00 0.00 37 1009.8
20240414150011 74 211 7.0 16.0 0.00 0.00 0.00 41 1009.8
20240414145511 74 198 7.0 15.0 0.00 0.00 0.00 39 1009.9
20240414145010 74 210 3.0 16.0 0.00 0.00 0.00 39 1009.9
20240414144511 73 178 7.0 17.0 0.00 0.00 0.00 40 1009.9
20240414143511 72 193 16.0 18.0 0.00 0.00 0.00 40 1010.0
20240414142511 72 184 4.0 14.0 0.00 0.00 0.00 41 1010.4
20240414142011 71 182 11.0 14.0 0.00 0.00 0.00 41 1010.4
20240414141511 71 214 4.0 12.0 0.00 0.00 0.00 42 1010.4
20240414140510 70 198 9.0 13.0 0.00 0.00 0.00 42 1010.3
20240414140010 69 194 7.0 13.0 0.00 0.00 0.00 42 1010.3
20240414135511 69 214 6.0 12.0 0.00 0.00 0.00 44 1010.4
20240414135010 68 201 4.0 11.0 0.00 0.00 0.00 44 1010.4
20240414134511 68 194 6.0 16.0 0.00 0.00 0.00 44 1010.4
20240414134010 67 175 6.0 16.0 0.00 0.00 0.00 46 1010.4
20240414133511 67 221 8.0 16.0 0.00 0.00 0.00 44 1010.4
20240414133010 67 224 6.0 14.0 0.00 0.00 0.00 45 1010.4
20240414132511 67 176 3.0 17.0 0.00 0.00 0.00 44 1010.6
20240414132010 66 217 4.0 18.0 0.00 0.00 0.00 47 1010.6
20240414131511 65 190 17.0 18.0 0.00 0.00 0.00 46 1010.6
20240414131010 64 187 9.0 14.0 0.00 0.00 0.00 49 1010.9
20240414130511 62 187 9.0 14.0 0.00 0.00 0.00 51 1010.9
20240414130011 59 207 5.0 14.0 0.00 0.00 0.00 56 1010.9
20240414125511 54 188 6.0 11.0 0.00 0.00 0.00 74 1011.3
20240414125011 51 187 0.0 7.0 0.00 0.00 0.00 78 1011.3
20240414124510 50 54 1.0 3.0 0.00 0.00 0.00 81 1011.3
20240414124011 50 120 0.0 2.0 0.00 0.00 0.00 83 1011.7
20240414123010 49 121 0.0 2.0 0.00 0.00 0.00 86 1011.7
20240414122511 48 121 0.0 0.0 0.00 0.00 0.00 88 1011.9
20240414122010 48 120 0.0 0.0 0.00 0.00 0.00 89 1011.9
20240414121511 47 120 0.0 0.0 0.00 0.00 0.00 91 1011.9
20240414121011 46 122 0.0 0.0 0.00 0.00 0.00 92 1012.0
20240414120510 46 121 0.0 0.0 0.00 0.00 0.00 93 1012.0
20240414120011 45 121 0.0 0.0 0.00 0.00 0.00 94 1012.0
20240414115010 44 122 0.0 0.0 0.00 0.00 0.00 94 1012.1
20240414114010 43 120 0.0 0.0 0.00 0.00 0.00 95 1012.0
20240414113511 43 121 0.0 2.0 0.00 0.00 0.00 95 1012.0
20240414113011 42 121 0.0 3.0 0.00 0.00 0.00 95 1012.0
20240414112511 42 120 2.0 4.0 0.00 0.00 0.00 95 1011.9
20240414111511 42 121 0.0 3.0 0.00 0.00 0.00 95 1011.9
20240414110511 42 120 0.0 0.0 0.00 0.00 0.00 95 1011.8
20240414105510 42 120 0.0 0.0 0.00 0.00 0.00 94 1011.8
20240414105011 42 120 0.0 0.0 0.00 0.00 0.00 94 1011.8
20240414104011 42 121 0.0 0.0 0.00 0.00 0.00 94 1011.8
20240414103511 42 120 0.0 0.0 0.00 0.00 0.00 94 1011.8
20240414103010 42 121 0.0 0.0 0.00 0.00 0.00 94 1011.8
20240414102511 42 120 0.0 0.0 0.00 0.00 0.00 94 1010.9
20240414102011 42 121 0.0 0.0 0.00 0.00 0.00 94 1010.9
20240414101510 41 120 0.0 3.0 0.00 0.00 0.00 93 1010.9
20240414101011 42 120 0.0 3.0 0.00 0.00 0.00 93 1011.8
20240414100511 42 120 0.0 2.0 0.00 0.00 0.00 93 1011.8
20240414100010 42 121 0.0 2.0 0.00 0.00 0.00 93 1011.8
20240414095511 42 121 2.0 3.0 0.00 0.00 0.00 92 1011.8
20240414095011 42 120 2.0 3.0 0.00 0.00 0.00 92 1011.8
20240414094511 42 120 1.0 3.0 0.00 0.00 0.00 92 1011.8
20240414093510 42 120 1.0 3.0 0.00 0.00 0.00 92 1011.9
20240414093011 42 120 0.0 3.0 0.00 0.00 0.00 92 1011.9
20240414092510 42 120 2.0 3.0 0.00 0.00 0.00 92 1011.9
20240414092010 42 121 0.0 0.0 0.00 0.00 0.00 92 1011.9
20240414091010 42 121 0.0 0.0 0.00 0.00 0.00 92 1011.9
20240414090011 42 120 0.0 0.0 0.00 0.00 0.00 92 1011.9
20240414085510 42 121 0.0 0.0 0.00 0.00 0.00 92 1011.9
20240414085011 42 120 0.0 0.0 0.00 0.00 0.00 92 1011.9
20240414084510 42 121 0.0 0.0 0.00 0.00 0.00 92 1011.9
20240414084010 42 120 0.0 0.0 0.00 0.00 0.00 92 1011.9
20240414083511 42 121 0.0 0.0 0.00 0.00 0.00 92 1011.9
20240414083011 42 121 0.0 1.0 0.00 0.00 0.00 92 1011.9
20240414082511 42 121 0.0 3.0 0.00 0.00 0.00 92 1012.0
20240414082011 42 120 0.0 4.0 0.00 0.00 0.00 91 1012.0
20240414080511 43 121 2.0 3.0 0.00 0.00 0.00 90 1012.2
20240414080010 43 121 0.0 3.0 0.00 0.00 0.00 90 1012.2
20240414075511 43 121 2.0 3.0 0.00 0.00 0.00 90 1012.2
20240414075010 43 121 0.0 3.0 0.00 0.00 0.00 90 1012.2
20240414074510 43 120 2.0 3.0 0.00 0.00 0.00 90 1012.2
20240414074011 43 120 2.0 3.0 0.00 0.00 0.00 90 1012.3
20240414073510 43 121 0.0 2.0 0.00 0.00 0.00 90 1012.3
20240414073011 43 120 2.0 2.0 0.00 0.00 0.00 89 1012.3
20240414072511 43 121 0.0 3.0 0.00 0.00 0.00 88 1012.3
20240414072010 43 120 0.0 3.0 0.00 0.00 0.00 88 1012.3
20240414071511 44 121 2.0 3.0 0.00 0.00 0.00 88 1012.3
20240414071011 44 121 0.0 3.0 0.00 0.00 0.00 87 1012.4
20240414070011 44 120 1.0 3.0 0.00 0.00 0.00 87 1012.4
20240414065510 44 122 0.0 0.0 0.00 0.00 0.00 87 1012.7
20240414065011 44 120 0.0 0.0 0.00 0.00 0.00 87 1012.7
20240414064010 44 120 0.0 2.0 0.00 0.00 0.00 87 1012.8
20240414063511 44 120 1.0 3.0 0.00 0.00 0.00 86 1012.8
20240414063010 44 121 1.0 4.0 0.00 0.00 0.00 86 1012.8
20240414062511 44 121 2.0 4.0 0.00 0.00 0.00 85 1012.8
20240414062011 44 121 2.0 3.0 0.00 0.00 0.00 85 1012.8
20240414061510 45 120 2.0 3.0 0.00 0.00 0.00 85 1012.8
20240414061011 45 121 2.0 3.0 0.00 0.00 0.00 85 1013.0
20240414060510 45 122 0.0 2.0 0.00 0.00 0.00 85 1013.0
20240414060010 45 120 0.0 3.0 0.00 0.00 0.00 84 1013.0
20240414055510 45 120 2.0 3.0 0.00 0.00 0.00 84 1013.2
20240414054511 45 121 0.0 2.0 0.00 0.00 0.00 83 1013.2
20240414054011 45 120 0.0 3.0 0.00 0.00 0.00 82 1013.3
20240414053510 46 120 1.0 3.0 0.00 0.00 0.00 81 1013.3
20240414053011 46 121 1.0 3.0 0.00 0.00 0.00 80 1013.3
20240414052511 46 120 1.0 4.0 0.00 0.00 0.00 81 1013.4
20240414052011 46 121 3.0 4.0 0.00 0.00 0.00 81 1013.4
20240414051011 46 122 2.0 3.0 0.00 0.00 0.00 81 1013.4
20240414050510 46 121 2.0 4.0 0.00 0.00 0.00 81 1013.4
20240414050011 46 121 2.0 4.0 0.00 0.00 0.00 81 1013.4